Location: Béaulencourt
(50.0796°N, 2.8795°E)
Time: 00:23:31
(UTC+00:00)

SL-08 R/B - Pass Details

Date: 20 January 2026
Orbit: 666 x 730 km, 98.5° (Epoch: 17 February)

Event Time Altitude Azimuth Distance (km) Brightness Sun altitude
Rises 06:36:44 0° 154° (SSE) 3,138 7.4 -9.6°
Reaches altitude 10° 06:39:01 10° 151° (SSE) 2,224 6.7 -9.2°
Maximum altitude 06:43:51 65° 71° (ENE) 807 3.9 -8.5°
Drops below altitude 10° 06:48:43 10° 350° (N) 2,236 5.6 -7.8°
Sets 06:51:00 0° 348° (NNW) 3,157 6.3 -7.4°
